Home   Weather   Pori   Past weeks

Flag for Finland Past Weather in Pori, Finland — Yesterday and Last 2 Weeks

Now
36 °F

Light rain. Fog.


Feels Like: 32 °F
Forecast: 27 / 38 °F
Wind: 5 mph from Southwest

Location: Pori Airport

Current Time: Dec 8, 2016 at 4:14:04 am

Latest Report: Dec 8, 2016 at 3:20 am


Visibility: 2 mi

Pressure: 29.50 "Hg

Humidity: 100%

Dew Point: 36 °F

Location of PoriLocation

Past Weather in Pori — Graph

°F

Pori Temperature Yesterday

Maximum temperature yesterday: 37 °F (at 3:50 pm)
Minimum temperature yesterday: 28 °F (at 12:20 am)
Average temperature yesterday: 35 °F

High & Low Weather Summary for the Past Weeks

 TemperatureHumidityPressure
High45 °F (Nov 23, 9:20 am)100% (Nov 23, 2:20 am)30.33 "Hg (Nov 23, 2:20 am)
Low5 °F (Dec 4, 6:50 am)60% (Dec 1, 12:20 am)29.12 "Hg (Nov 26, 2:50 pm)
Average31 °F85%29.76 "Hg
* Reported Nov 23 2:20 am — Dec 8 2:50 am, Pori, Weather by CustomWeather, © 2016

Note: Actual official high and low records may vary slightly from our data, if they occured in-between our weather recording intervals... More about our weather records

Advertising

Pori Weather History for the Previous 24 Hours

Scroll right to see more
 ConditionsComfort  
Time TempWeatherWind HumidityBarometerVisibility
2:50 am
Thu, Dec 8
36 °FLight rain. Fog.5 mph100%29.50 "Hg3 mi
2:20 am36 °FLight rain. Fog.5 mph100%29.50 "Hg3 mi
1:50 am36 °FDrizzle. Low clouds.5 mph100%29.50 "Hg3 mi
1:20 am36 °FDrizzle. Low clouds.5 mph100%29.53 "Hg3 mi
12:50 am36 °FDrizzle. Low clouds.6 mph100%29.53 "Hg2 mi
12:20 am36 °FDrizzle. Low clouds.5 mph100%29.56 "Hg3 mi
11:50 pm
Wed, Dec 7
36 °FDrizzle. Low clouds.5 mph100%29.56 "Hg4 mi
11:20 pm37 °FLight rain. Mostly cloudy.7 mph93%29.59 "HgN/A
10:50 pm37 °FLight rain. Low clouds.8 mph93%29.62 "Hg6 mi
10:20 pm37 °FLight rain. Low clouds.6 mph93%29.62 "Hg5 mi
9:50 pm37 °FLight rain. Low clouds.6 mph93%29.62 "HgN/A
9:20 pm37 °FLight rain. Low clouds.6 mph93%29.65 "HgN/A
8:50 pm37 °FLight rain. Overcast.6 mph93%29.65 "HgN/A
8:20 pm37 °FOvercast.6 mph87%29.68 "HgN/A
7:50 pm37 °FOvercast.6 mph87%29.68 "HgN/A
7:20 pm37 °FOvercast.6 mph81%29.71 "HgN/A
6:50 pm37 °FOvercast.6 mph81%29.74 "HgN/A
6:20 pm37 °FOvercast.6 mph81%29.74 "HgN/A
5:50 pm37 °FOvercast.7 mph81%29.77 "HgN/A
5:20 pm37 °FOvercast.8 mph75%29.77 "HgN/A
4:50 pm37 °FOvercast.7 mph75%29.77 "HgN/A
4:20 pm37 °FOvercast.6 mph75%29.80 "HgN/A
3:50 pm37 °FOvercast.9 mph75%29.80 "HgN/A
3:20 pm36 °FOvercast.9 mph81%29.83 "HgN/A
2:50 pm36 °FOvercast.10 mph81%29.86 "HgN/A
2:20 pm36 °FOvercast.14 mph81%29.86 "HgN/A
1:50 pm36 °FOvercast.9 mph81%29.86 "HgN/A
1:20 pm36 °FOvercast.10 mph81%29.89 "HgN/A
12:50 pm36 °FOvercast.12 mph81%29.89 "HgN/A
12:20 pm36 °FOvercast.10 mph81%29.92 "HgN/A
11:50 am36 °FOvercast.12 mph81%29.92 "HgN/A
11:20 am36 °FOvercast.12 mph87%29.95 "HgN/A
10:50 am36 °FOvercast.12 mph87%29.95 "HgN/A
10:20 am36 °FOvercast.13 mph87%29.95 "HgN/A
9:50 am36 °FMostly cloudy.10 mph87%29.95 "HgN/A
9:20 am36 °FPassing clouds.10 mph87%29.95 "HgN/A
8:50 am36 °FPassing clouds.10 mph81%29.98 "HgN/A
8:20 am36 °FPassing clouds.10 mph81%29.98 "HgN/A
7:50 am36 °FMostly cloudy.10 mph81%30.01 "HgN/A
7:20 am36 °FMostly cloudy.12 mph81%30.01 "HgN/A
6:50 am36 °FOvercast.14 mph81%30.04 "HgN/A
6:20 am36 °FOvercast.13 mph81%30.04 "HgN/A
5:50 am36 °FMostly cloudy.12 mph81%30.04 "HgN/A
5:20 am36 °FPassing clouds.9 mph81%30.07 "HgN/A
4:50 am34 °FPassing clouds.10 mph87%30.07 "HgN/A
4:20 am34 °FClear.10 mph87%30.09 "Hg10 mi
Weather by CustomWeather, © 2016

See weather overviewHow to use our weather pages